This is the latest recevied weather packets stored in our database for station/object SQ4IXR-4. If no packets are shown the sender has not sent any weather packets the latest 10 day(s).
| Time | Temp. | Humidity | Pressure | Rain* | Wind** | Luminosity | Snow |
|---|---|---|---|---|---|---|---|
| 1787851680 | 20.56° C | 48% | 1028.1 hPa | - | - | - | - |
| 1787850857 | 21.11° C | 47% | 1028 hPa | - | - | - | - |
| 1787850034 | 21.11° C | 46% | 1027.8 hPa | - | - | - | - |
| 1787849210 | 21.67° C | 44% | 1027.9 hPa | - | - | - | - |
| 1787848387 | 21.67° C | 44% | 1027.7 hPa | - | - | - | - |
| 1787847568 | 22.22° C | 43% | 1027.7 hPa | - | - | - | - |
| 1787846739 | 22.22° C | 42% | 1027.8 hPa | - | - | - | - |
| 1787845916 | 22.78° C | 42% | 1027.8 hPa | - | - | - | - |
| 1787845092 | 22.78° C | 41% | 1028 hPa | - | - | - | - |
| 1787844268 | 22.22° C | 40% | 1028 hPa | - | - | - | - |
| 1787843447 | 22.78° C | 39% | 1028 hPa | - | - | - | - |
| 1787842623 | 23.33° C | 41% | 1027.9 hPa | - | - | - | - |
| 1787841801 | 23.33° C | 40% | 1027.8 hPa | - | - | - | - |
| 1787840973 | 23.33° C | 39% | 1028 hPa | - | - | - | - |
| 1787840152 | 23.33° C | 41% | 1027.9 hPa | - | - | - | - |
| 1787839328 | 23.89° C | 40% | 1027.9 hPa | - | - | - | - |
| 1787838504 | 23.89° C | 38% | 1027.9 hPa | - | - | - | - |
| 1787837684 | 24.44° C | 38% | 1027.9 hPa | - | - | - | - |
| 1787836858 | 23.33° C | 39% | 1028.1 hPa | - | - | - | - |
| 1787836035 | 25° C | 36% | 1028.1 hPa | - | - | - | - |
| 1787835219 | 30.56° C | 27% | 1027.7 hPa | - | - | - | - |
| 1787834400 | 32.78° C | 23% | 1027.6 hPa | - | - | - | - |
| 1787833577 | 32.22° C | 24% | 1027.6 hPa | - | - | - | - |
| 1787832735 | 25.56° C | 35% | 1028.3 hPa | - | - | - | - |
| 1787831913 | 25.56° C | 36% | 1028.4 hPa | - | - | - | - |
* Rain since midnight (hover to see other rain measurements)
** Current wind speed in m/s (hover to see current wind gust speed)